Location: Liscomb Game Sanctuary
(45.1633°N, 62.5575°W)
Time: 01:21:59
(UTC-03:00)

Amateur Radio Satellites - All Passes

Search period start: 24 July 2014 00:51
Search period end: 25 July 2014 00:51
Location: Liscomb Game Sanctuary, 45.1633°N, 62.5575°W

Satellite Date Start Highest point End Downlink Frequencies (MHz)
Time Altitude Azimuth
MaSat-1 24 Jul 00:53:10 00:55:59 17° 319° (NW) 00:59:02 437.345 MHz
PCSat 24 Jul 01:28:11 01:32:05 21° 106° (ESE) 01:35:59 145.825 MHz
Oscar 19 24 Jul 01:30:00 01:32:32 14° 88° (E) 01:35:02 437.125 CW, 437.150 USB
UOSAT-12 24 Jul 01:38:14 01:42:41 41° 242° (WSW) 01:47:04 437.025 FM, 437.400 FM
Oscar 16 24 Jul 01:56:04 02:00:16 25° 94° (E) 02:04:28 437.025 USB, Beacon 2401.1428
ITAMSAT 1 24 Jul 02:06:18 02:08:51 14° 88° (E) 02:11:23 435.822 SSB
Lituanica SAT-1 24 Jul 02:22:07 02:23:59 24° 342° (NNW) 02:25:50 437.275 MHz beacon
AO-27 24 Jul 02:23:00 02:26:48 20° 92° (E) 02:30:34 436.795 MHz FM
ISS 24 Jul 02:23:53 02:27:09 53° 145° (SE) 02:30:26 145.800 FM
OPAL 24 Jul 02:25:53 02:27:41 12° 53° (NE) 02:29:30 ?
Uribyol 2 24 Jul 02:26:07 02:30:07 22° 93° (E) 02:34:05 436.500 FM
AO-Echo 24 Jul 02:30:11 02:34:20 24° 92° (E) 02:38:21 ?
Sapphire 24 Jul 02:35:34 02:40:54 67° 118° (ESE) 02:46:18 437.095 MHz 1200 baud AX-25 AFSK
RS-15 24 Jul 02:40:25 02:46:01 15° 264° (W) 02:51:43 29.354 - 29.394 USB, Beacon 29.352 USB
JAS-1B 24 Jul 02:48:57 02:57:17 32° 89° (E) 03:04:45 435.800 - 435.900 CW/SSB
Oscar 19 24 Jul 03:07:19 03:12:30 81° 286° (WNW) 03:17:40 437.125 CW, 437.150 USB
PCSat 24 Jul 03:09:37 03:14:59 65° 305° (NW) 03:20:24 145.825 MHz
TMSAT-1 24 Jul 03:31:53 03:36:18 26° 94° (E) 03:40:42 436.925 FM
Oscar 16 24 Jul 03:34:55 03:39:49 45° 291° (WNW) 03:44:42 437.025 USB, Beacon 2401.1428
ITAMSAT 1 24 Jul 03:43:47 03:48:59 81° 286° (WNW) 03:54:09 435.822 SSB
Gurwin Techsat 1B 24 Jul 03:52:05 03:57:18 53° 100° (E) 04:02:28 435.225 FM
Lituanica SAT-1 24 Jul 03:55:56 03:57:17 15° 1° (N) 03:58:38 437.275 MHz beacon
OPAL 24 Jul 04:00:49 04:05:45 77° 72° (ENE) 04:10:43 ?
ISS 24 Jul 04:00:50 04:03:59 36° 344° (NNW) 04:07:09 145.800 FM
AO-27 24 Jul 04:01:35 04:06:41 56° 289° (WNW) 04:11:43 436.795 MHz FM
Uribyol 2 24 Jul 04:04:53 04:09:52 50° 290° (WNW) 04:14:50 436.500 FM
AO-Echo 24 Jul 04:08:23 04:13:20 46° 291° (WNW) 04:18:06 ?
Sapphire 24 Jul 04:20:25 04:24:49 25° 318° (NW) 04:29:15 437.095 MHz 1200 baud AX-25 AFSK
Uosat F 24 Jul 04:22:42 04:26:02 18° 91° (E) 04:29:19 435.120 FM
JAS-1B 24 Jul 04:38:48 04:48:31 71° 291° (WNW) 04:57:05 435.800 - 435.900 CW/SSB
Oscar 19 24 Jul 04:48:51 04:51:01 13° 304° (NW) 04:53:12 437.125 CW, 437.150 USB
PCSat 24 Jul 04:56:16 04:59:30 16° 327° (NNW) 05:02:45 145.825 MHz
AO-7 24 Jul 05:03:10 05:10:59 42° 99° (E) 05:18:43 29.400 - 29.500 MHz
TMSAT-1 24 Jul 05:11:23 05:16:24 44° 291° (WNW) 05:21:23 436.925 FM
ITAMSAT 1 24 Jul 05:25:26 05:27:39 13° 305° (NW) 05:29:52 435.822 SSB
Lituanica SAT-1 24 Jul 05:28:35 05:30:33 29° 20° (NNE) 05:32:31 437.275 MHz beacon
Gurwin Techsat 1B 24 Jul 05:32:47 05:36:55 24° 298° (WNW) 05:41:02 435.225 FM
ISS 24 Jul 05:38:23 05:41:18 26° 4° (N) 05:44:13 145.800 FM
OPAL 24 Jul 05:42:48 05:45:13 14° 269° (W) 05:47:39 ?
Uosat F 24 Jul 06:00:16 06:05:15 62° 289° (WNW) 06:10:10 435.120 FM
STRAND 1 24 Jul 06:15:12 06:19:51 35° 66° (ENE) 06:24:31 ?
JAS-1B 24 Jul 06:30:34 06:37:13 22° 313° (NW) 06:43:30 435.800 - 435.900 CW/SSB
AO-7 24 Jul 06:55:58 07:03:54 50° 299° (WNW) 07:11:46 29.400 - 29.500 MHz
Lituanica SAT-1 24 Jul 07:01:26 07:03:17 24° 218° (SW) 07:05:08 437.275 MHz beacon
KITSAT 1 24 Jul 07:04:32 07:11:48 38° 110° (ESE) 07:19:04 435.175 FM
Hamsat 24 Jul 07:10:48 07:15:04 68° 101° (ESE) 07:19:22 145.90 MHz
ISS 24 Jul 07:15:11 07:18:31 54° 23° (NNE) 07:21:49 145.800 FM
JAS-2 24 Jul 07:19:06 07:25:21 56° 99° (E) 07:30:51 435.800 - 435.900 CW/SSB, 435.910 FM
MaSat-1 24 Jul 07:30:08 07:35:08 40° 54° (NE) 07:40:03 437.345 MHz
STRAND 1 24 Jul 07:54:28 07:59:03 32° 264° (W) 08:03:39 ?
Saudisat 1A 24 Jul 08:11:23 08:11:41 10° 107° (ESE) 08:11:59 436.775 MHz
SO-67 24 Jul 08:11:50 08:15:15 51° 99° (E) 08:18:38 435.3500 MHz FM
Hamsat 24 Jul 08:48:24 08:50:31 14° 299° (WNW) 08:52:39 145.90 MHz
AO-7 24 Jul 08:51:01 08:54:44 14° 321° (NW) 08:58:27 29.400 - 29.500 MHz
ISS 24 Jul 08:52:11 08:55:05 27° 221° (SW) 08:57:58 145.800 FM
KITSAT 1 24 Jul 08:58:56 09:06:54 58° 311° (NW) 09:14:54 435.175 FM
JAS-2 24 Jul 09:04:50 09:09:56 26° 301° (WNW) 09:14:36 435.800 - 435.900 CW/SSB, 435.910 FM
MaSat-1 24 Jul 09:07:41 09:12:29 35° 252° (WSW) 09:17:07 437.345 MHz
Sapphire 24 Jul 09:38:58 09:42:44 19° 37° (NE) 09:46:30 437.095 MHz 1200 baud AX-25 AFSK
HO-68 24 Jul 09:42:18 09:48:54 38° 97° (E) 09:55:26 435.675 MHz FM
Saudisat 1A 24 Jul 09:46:06 09:50:31 84° 125° (SE) 09:54:59 436.775 MHz
SO-67 24 Jul 09:46:40 09:47:54 12° 297° (WNW) 09:49:07 435.3500 MHz FM
Oscar 11 24 Jul 09:53:36 09:56:04 15° 90° (E) 09:58:32 145.825 FM, Beacon 2401.500 USB
PCSat 24 Jul 10:12:32 10:17:18 30° 45° (NE) 10:22:03 145.825 MHz
UKube-1 24 Jul 10:37:13 10:41:37 80° 104° (ESE) 10:45:58 145.840 MHz, 145.915 MHz
KITSAT 1 24 Jul 10:58:12 11:04:13 22° 336° (NNW) 11:10:16 435.175 FM
Sapphire 24 Jul 11:21:34 11:27:02 82° 58° (ENE) 11:32:27 437.095 MHz 1200 baud AX-25 AFSK
Saudisat 1A 24 Jul 11:27:38 11:30:42 18° 325° (NW) 11:33:47 436.775 MHz
Oscar 11 24 Jul 11:28:22 11:32:37 56° 287° (WNW) 11:36:51 145.825 FM, Beacon 2401.500 USB
HO-68 24 Jul 11:29:57 11:36:42 47° 296° (WNW) 11:43:24 435.675 MHz FM
FUNcube-1 24 Jul 11:34:57 11:39:06 64° 101° (ESE) 11:43:14 145.950 - 145.970 MHz USB
JAS-1B 24 Jul 11:53:38 11:54:52 10° 32° (NNE) 11:56:06 435.800 - 435.900 CW/SSB
PCSat 24 Jul 11:55:44 12:00:59 52° 245° (WSW) 12:06:12 145.825 MHz
UKube-1 24 Jul 12:15:22 12:17:12 13° 301° (WNW) 12:19:02 145.840 MHz, 145.915 MHz
RS-15 24 Jul 12:45:19 12:50:49 15° 96° (E) 12:56:15 29.354 - 29.394 USB, Beacon 29.352 USB
Oscar 19 24 Jul 12:48:20 12:52:28 25° 63° (ENE) 12:56:36 437.125 CW, 437.150 USB
KITSAT 1 24 Jul 12:58:16 13:03:13 17° 7° (N) 13:08:09 435.175 FM
Sapphire 24 Jul 13:06:39 13:09:44 16° 256° (WSW) 13:12:48 437.095 MHz 1200 baud AX-25 AFSK
FUNcube-1 24 Jul 13:12:58 13:15:01 13° 299° (WNW) 13:17:03 145.950 - 145.970 MHz USB
Oscar 16 24 Jul 13:14:54 13:19:44 44° 69° (ENE) 13:24:35 437.025 USB, Beacon 2401.1428
HO-68 24 Jul 13:21:11 13:22:40 11° 318° (NW) 13:24:09 435.675 MHz FM
SO-50 24 Jul 13:23:21 13:26:18 18° 111° (ESE) 13:29:17 436.795 FM
ITAMSAT 1 24 Jul 13:25:36 13:29:56 27° 64° (ENE) 13:34:16 435.822 SSB
JAS-1B 24 Jul 13:34:34 13:42:17 35° 56° (NE) 13:50:40 435.800 - 435.900 CW/SSB
Gurwin Techsat 1B 24 Jul 13:38:10 13:41:18 16° 58° (ENE) 13:44:26 435.225 FM
AO-27 24 Jul 13:42:50 13:47:38 38° 67° (ENE) 13:52:26 436.795 MHz FM
AO-Echo 24 Jul 13:44:29 13:49:22 39° 68° (ENE) 13:54:18 ?
Uribyol 2 24 Jul 13:45:44 13:50:36 42° 68° (ENE) 13:55:28 436.500 FM
AO-7 24 Jul 14:15:46 14:20:58 18° 44° (NE) 14:26:09 29.400 - 29.500 MHz
Oscar 19 24 Jul 14:26:40 14:31:33 46° 261° (W) 14:36:29 437.125 CW, 437.150 USB
RS-15 24 Jul 14:49:57 15:00:55 68° 118° (ESE) 15:11:42 29.354 - 29.394 USB, Beacon 29.352 USB
TMSAT-1 24 Jul 14:54:28 14:59:34 50° 70° (ENE) 15:04:41 436.925 FM
KITSAT 1 24 Jul 14:54:32 15:01:39 32° 36° (NE) 15:08:42 435.175 FM
Oscar 16 24 Jul 14:55:06 14:59:16 25° 266° (W) 15:03:29 437.025 USB, Beacon 2401.1428
SO-50 24 Jul 15:01:57 15:06:23 61° 309° (NW) 15:10:55 436.795 FM
ITAMSAT 1 24 Jul 15:04:14 15:09:12 44° 261° (W) 15:14:12 435.822 SSB
Gurwin Techsat 1B 24 Jul 15:15:16 15:20:35 83° 256° (WSW) 15:25:57 435.225 FM
AO-27 24 Jul 15:22:38 15:27:12 30° 265° (W) 15:31:48 436.795 MHz FM
JAS-1B 24 Jul 15:23:20 15:31:56 73° 258° (WSW) 15:41:45 435.800 - 435.900 CW/SSB
AO-Echo 24 Jul 15:23:34 15:28:11 31° 265° (W) 15:32:52 ?
Uribyol 2 24 Jul 15:25:48 15:30:12 27° 265° (W) 15:34:37 436.500 FM
Uosat F 24 Jul 15:37:35 15:41:59 31° 65° (ENE) 15:46:24 435.120 FM
UOSAT-12 24 Jul 15:51:09 15:55:22 37° 117° (ESE) 15:59:40 437.025 FM, 437.400 FM
AO-7 24 Jul 16:04:00 16:12:15 67° 66° (ENE) 16:20:32 29.400 - 29.500 MHz
OPAL 24 Jul 16:09:45 16:12:54 16° 93° (E) 16:16:04 ?
Saudisat 1A 24 Jul 16:32:09 16:35:32 21° 38° (NE) 16:38:53 436.775 MHz
TMSAT-1 24 Jul 16:35:33 16:39:45 24° 267° (W) 16:43:58 436.925 FM
SO-50 24 Jul 16:45:29 16:47:54 14° 331° (NNW) 16:50:21 436.795 FM
KITSAT 1 24 Jul 16:49:50 16:57:57 82° 239° (WSW) 17:06:00 435.175 FM
Gurwin Techsat 1B 24 Jul 16:59:56 17:01:22 11° 274° (W) 17:02:48 435.225 FM
RS-15 24 Jul 17:03:30 17:13:56 45° 324° (NW) 17:24:20 29.354 - 29.394 USB, Beacon 29.352 USB
Uosat F 24 Jul 17:16:04 17:20:41 36° 263° (W) 17:25:21 435.120 FM
JAS-1B 24 Jul 17:18:56 17:24:15 17° 280° (W) 17:29:58 435.800 - 435.900 CW/SSB
UOSAT-12 24 Jul 17:31:19 17:35:33 34° 316° (NW) 17:39:51 437.025 FM, 437.400 FM
JAS-2 24 Jul 17:31:28 17:38:29 38° 64° (ENE) 17:45:10 435.800 - 435.900 CW/SSB, 435.910 FM
OPAL 24 Jul 17:47:14 17:52:14 67° 290° (WNW) 17:57:17 ?
AO-7 24 Jul 17:58:29 18:05:35 30° 266° (W) 18:12:45 29.400 - 29.500 MHz
Hamsat 24 Jul 18:06:05 18:10:12 61° 74° (ENE) 18:14:21 145.90 MHz
Saudisat 1A 24 Jul 18:11:09 18:15:33 67° 238° (WSW) 18:19:54 436.775 MHz
KITSAT 1 24 Jul 18:47:07 18:52:07 18° 259° (W) 18:57:06 435.175 FM
SO-67 24 Jul 18:47:23 18:50:14 24° 69° (ENE) 18:53:06 435.3500 MHz FM
JAS-2 24 Jul 19:15:37 19:23:15 54° 261° (W) 19:30:35 435.800 - 435.900 CW/SSB, 435.910 FM
UOSAT-12 24 Jul 19:16:31 19:17:09 10° 339° (NNW) 19:17:47 437.025 FM, 437.400 FM
Oscar 10/S400 24 Jul 19:19:48 19:32:33 20° 137° (SE) 19:49:37 145.825 - 145.975 CW/USB, Beacon 145.810 USB
RS-15 24 Jul 19:21:03 19:29:57 27° 357° (N) 19:38:55 29.354 - 29.394 USB, Beacon 29.352 USB
OPAL 24 Jul 19:29:02 19:30:13 11° 308° (NW) 19:31:25 ?
Hamsat 24 Jul 19:44:45 19:46:36 13° 271° (W) 19:48:27 145.90 MHz
UKube-1 24 Jul 20:02:09 20:03:24 11° 58° (ENE) 20:04:39 145.840 MHz, 145.915 MHz
STRAND 1 24 Jul 20:02:15 20:07:23 74° 103° (ESE) 20:12:29 ?
HO-68 24 Jul 20:13:09 20:19:34 37° 61° (ENE) 20:25:59 435.675 MHz FM
SO-50 24 Jul 20:13:29 20:13:38 10° 22° (NNE) 20:13:48 436.795 FM
SO-67 24 Jul 20:20:33 20:23:16 22° 266° (W) 20:26:01 435.3500 MHz FM
Oscar 11 24 Jul 20:51:01 20:53:42 16° 62° (ENE) 20:56:23 145.825 FM, Beacon 2401.500 USB
UKube-1 24 Jul 21:34:32 21:38:54 89° 76° (ENE) 21:43:19 145.840 MHz, 145.915 MHz
RS-15 24 Jul 21:36:13 21:46:19 39° 31° (NNE) 21:56:38 29.354 - 29.394 USB, Beacon 29.352 USB
STRAND 1 24 Jul 21:42:48 21:45:59 17° 301° (WNW) 21:49:10 ?
SO-50 24 Jul 21:51:20 21:55:38 34° 44° (NE) 21:59:59 436.795 FM
HO-68 24 Jul 22:00:10 22:07:05 50° 260° (W) 22:14:02 435.675 MHz FM
Oscar 11 24 Jul 22:25:14 22:29:28 55° 260° (W) 22:33:43 145.825 FM, Beacon 2401.500 USB
FUNcube-1 24 Jul 22:33:11 22:37:31 67° 74° (ENE) 22:41:47 145.950 - 145.970 MHz USB
UOSAT-12 24 Jul 22:39:28 22:42:04 14° 29° (NNE) 22:44:39 437.025 FM, 437.400 FM
MaSat-1 24 Jul 23:00:39 23:04:39 81° 116° (ESE) 23:09:22 437.345 MHz
SO-50 24 Jul 23:31:51 23:36:16 39° 242° (WSW) 23:40:43 436.795 FM
RS-15 24 Jul 23:48:53 23:59:56 83° 238° (WSW) 00:11:22 29.354 - 29.394 USB, Beacon 29.352 USB
FUNcube-1 25 Jul 00:12:33 00:14:21 12° 271° (W) 00:16:10 145.950 - 145.970 MHz USB
UOSAT-12 25 Jul 00:18:31 00:23:13 59° 50° (NE) 00:27:51 437.025 FM, 437.400 FM
Lituanica SAT-1 25 Jul 00:35:33 00:37:36 48° 146° (SSE) 00:39:40 437.275 MHz beacon
MaSat-1 25 Jul 00:39:59 00:42:47 16° 319° (NW) 00:45:50 437.345 MHz
